| Back to River Map | <<< Previous Forecast Point | | | Next Forecast Point >>> | Printer Version | Graph Version |  |
|
WEST WALKER RIVER - HUDSON (WWHN2)
| Latitude: 38.81º N | Longitude: 119.23º W | Elevation: 4650 Feet | | Forecast Type: Unofficial Location |
| Location: Lyon County in Nevada | Bulletin Group: Eastern Sierra | River Group: Eastern Sierra |
| Issuance Time: | May 07 2026 at 7:41 AM PDT | Next Issuance: | May 08 2026 at 9:00 AM PDT
| |
| Action/Monitor: 5.0 Feet | Minor Flood: 6.0 Feet | Moderate Flood: N/A | Major Flood: N/A |
# Tabular Observed and Forecast Hydrograph Information
#
# Location: West Walker River - Hudson (WWHN2)
#
# File Generation Time: 05/07/2026 at 07:42 AM PDT
# Data Interval: 1 Hour
#
# Most Recent Date & Time of Maximum Observed: 05/07/2026 at 07:00 AM PDT
# Maximum Observed Stage: 2.29 Feet
# Maximum Observed Flow: 398 cfs
#
# Earliest Date & Time of Maximum Forecast: 05/12/2026 at 03:00 AM PDT
# Maximum Forecast Stage: 2.35 Feet
# Maximum Forecast Flow: 430 cfs
#
# OBSERVED
#
# Date & Time (Local) Stage (Feet) Flow (cfs) Trend Observed Status
# ---------------------------------------------------------------------------------
05/02/2026 07 AM PDT 1.76 182 Normal
05/02/2026 08 AM PDT 1.76 182 0 Normal
05/02/2026 09 AM PDT 1.77 186 + Normal
05/02/2026 10 AM PDT 1.77 186 0 Normal
05/02/2026 11 AM PDT 1.77 186 0 Normal
05/02/2026 12 PM PDT 1.77 186 0 Normal
05/02/2026 01 PM PDT 1.77 186 0 Normal
05/02/2026 02 PM PDT 1.78 189 + Normal
05/02/2026 03 PM PDT 1.79 192 + Normal
05/02/2026 04 PM PDT 1.79 192 0 Normal
05/02/2026 05 PM PDT 1.79 192 0 Normal
05/02/2026 06 PM PDT 1.79 192 0 Normal
05/02/2026 07 PM PDT 1.79 192 0 Normal
05/02/2026 08 PM PDT 1.78 189 - Normal
05/02/2026 09 PM PDT 1.80 195 + Normal
05/02/2026 10 PM PDT 1.79 192 - Normal
05/02/2026 11 PM PDT 1.79 192 0 Normal
05/03/2026 12 AM PDT 1.80 195 + Normal
05/03/2026 01 AM PDT 1.80 195 0 Normal
05/03/2026 02 AM PDT 1.82 202 + Normal
05/03/2026 03 AM PDT 1.84 208 + Normal
05/03/2026 04 AM PDT 1.85 212 + Normal
05/03/2026 05 AM PDT 1.86 215 + Normal
05/03/2026 06 AM PDT 1.87 219 + Normal
05/03/2026 07 AM PDT 1.86 215 - Normal
05/03/2026 08 AM PDT 1.87 219 + Normal
05/03/2026 09 AM PDT 1.87 219 0 Normal
05/03/2026 10 AM PDT 1.88 222 + Normal
05/03/2026 11 AM PDT 1.87 219 - Normal
05/03/2026 12 PM PDT 1.86 215 - Normal
05/03/2026 01 PM PDT 1.87 219 + Normal
05/03/2026 02 PM PDT 1.86 215 - Normal
05/03/2026 03 PM PDT 1.87 219 + Normal
05/03/2026 04 PM PDT 1.87 219 0 Normal
05/03/2026 05 PM PDT 1.88 222 + Normal
05/03/2026 06 PM PDT 1.88 222 0 Normal
05/03/2026 07 PM PDT 1.88 222 0 Normal
05/03/2026 08 PM PDT 1.89 226 + Normal
05/03/2026 09 PM PDT 1.89 226 0 Normal
05/03/2026 10 PM PDT 1.89 226 0 Normal
05/03/2026 11 PM PDT 1.88 222 - Normal
05/04/2026 12 AM PDT 1.88 222 0 Normal
05/04/2026 01 AM PDT 1.87 219 - Normal
05/04/2026 02 AM PDT 1.88 222 + Normal
05/04/2026 03 AM PDT 1.88 222 0 Normal
05/04/2026 04 AM PDT 1.88 222 0 Normal
05/04/2026 05 AM PDT 1.88 222 0 Normal
05/04/2026 06 AM PDT 1.88 222 0 Normal
05/04/2026 07 AM PDT 1.87 219 - Normal
05/04/2026 08 AM PDT 1.88 222 + Normal
05/04/2026 09 AM PDT 1.89 226 + Normal
05/04/2026 10 AM PDT 1.88 222 - Normal
05/04/2026 11 AM PDT 1.89 226 + Normal
05/04/2026 12 PM PDT 1.89 226 0 Normal
05/04/2026 01 PM PDT 1.88 222 - Normal
05/04/2026 02 PM PDT 1.87 219 - Normal
05/04/2026 03 PM PDT 1.86 215 - Normal
05/04/2026 04 PM PDT 1.87 219 + Normal
05/04/2026 05 PM PDT 1.89 226 + Normal
05/04/2026 06 PM PDT 1.89 226 0 Normal
05/04/2026 07 PM PDT 1.89 226 0 Normal
05/04/2026 08 PM PDT 1.89 226 0 Normal
05/04/2026 09 PM PDT 1.90 229 + Normal
05/04/2026 10 PM PDT 1.90 229 0 Normal
05/04/2026 11 PM PDT 1.91 233 + Normal
05/05/2026 12 AM PDT 1.92 236 + Normal
05/05/2026 01 AM PDT 1.95 248 + Normal
05/05/2026 02 AM PDT 1.98 259 + Normal
05/05/2026 03 AM PDT 1.99 263 + Normal
05/05/2026 04 AM PDT 2.01 271 + Normal
05/05/2026 05 AM PDT 2.03 279 + Normal
05/05/2026 06 AM PDT 2.03 279 0 Normal
05/05/2026 07 AM PDT 2.05 287 + Normal
05/05/2026 08 AM PDT 2.04 283 - Normal
05/05/2026 09 AM PDT 2.05 287 + Normal
05/05/2026 10 AM PDT 2.05 287 0 Normal
05/05/2026 11 AM PDT 2.05 287 0 Normal
05/05/2026 12 PM PDT 2.06 291 + Normal
05/05/2026 01 PM PDT 2.07 295 + Normal
05/05/2026 02 PM PDT 2.07 295 0 Normal
05/05/2026 03 PM PDT 2.07 295 0 Normal
05/05/2026 04 PM PDT 2.08 300 + Normal
05/05/2026 05 PM PDT 2.10 308 + Normal
05/05/2026 06 PM PDT 2.10 308 0 Normal
05/05/2026 07 PM PDT 2.11 313 + Normal
05/05/2026 08 PM PDT 2.10 308 - Normal
05/05/2026 09 PM PDT 2.11 313 + Normal
05/05/2026 10 PM PDT 2.12 317 + Normal
05/05/2026 11 PM PDT 2.13 322 + Normal
05/06/2026 12 AM PDT 2.14 326 + Normal
05/06/2026 01 AM PDT 2.16 335 + Normal
05/06/2026 02 AM PDT 2.18 344 + Normal
05/06/2026 03 AM PDT 2.19 349 + Normal
05/06/2026 04 AM PDT 2.19 349 0 Normal
05/06/2026 05 AM PDT 2.20 354 + Normal
05/06/2026 06 AM PDT 2.20 354 0 Normal
05/06/2026 07 AM PDT 2.20 354 0 Normal
05/06/2026 08 AM PDT 2.20 354 0 Normal
05/06/2026 09 AM PDT 2.20 354 0 Normal
05/06/2026 10 AM PDT 2.21 359 + Normal
05/06/2026 11 AM PDT 2.22 363 + Normal
05/06/2026 12 PM PDT 2.22 363 0 Normal
05/06/2026 01 PM PDT 2.22 363 0 Normal
05/06/2026 02 PM PDT 2.21 359 - Normal
05/06/2026 03 PM PDT 2.22 363 + Normal
05/06/2026 04 PM PDT 2.22 363 0 Normal
05/06/2026 05 PM PDT 2.22 363 0 Normal
05/06/2026 06 PM PDT 2.22 363 0 Normal
05/06/2026 07 PM PDT 2.21 359 - Normal
05/06/2026 08 PM PDT 2.22 363 + Normal
05/06/2026 09 PM PDT 2.22 363 0 Normal
05/06/2026 10 PM PDT 2.23 368 + Normal
05/06/2026 11 PM PDT 2.21 359 - Normal
05/07/2026 12 AM PDT 2.24 373 + Normal
05/07/2026 01 AM PDT 2.24 373 0 Normal
05/07/2026 02 AM PDT 2.27 388 + Normal
05/07/2026 03 AM PDT 2.28 393 + Normal
05/07/2026 04 AM PDT 2.27 388 - Normal
05/07/2026 05 AM PDT 2.29 398 + Normal
05/07/2026 06 AM PDT 2.29 398 0 Normal
05/07/2026 07 AM PDT 2.29 398 0 Normal
#
# FORECAST
#
# Date & Time (Local) Stage (Feet) Flow (cfs) Trend Forecast Status
# ---------------------------------------------------------------------------------
05/07/2026 08 AM PDT 2.29 398 Normal
05/07/2026 09 AM PDT 2.29 398 0 Normal
05/07/2026 10 AM PDT 2.29 398 0 Normal
05/07/2026 11 AM PDT 2.29 398 0 Normal
05/07/2026 12 PM PDT 2.29 398 0 Normal
05/07/2026 01 PM PDT 2.29 398 0 Normal
05/07/2026 02 PM PDT 2.29 398 0 Normal
05/07/2026 03 PM PDT 2.28 393 - Normal
05/07/2026 04 PM PDT 2.28 393 0 Normal
05/07/2026 05 PM PDT 2.28 393 0 Normal
05/07/2026 06 PM PDT 2.27 388 - Normal
05/07/2026 07 PM PDT 2.27 388 0 Normal
05/07/2026 08 PM PDT 2.27 388 0 Normal
05/07/2026 09 PM PDT 2.27 388 0 Normal
05/07/2026 10 PM PDT 2.27 388 0 Normal
05/07/2026 11 PM PDT 2.27 388 0 Normal
05/08/2026 12 AM PDT 2.27 388 0 Normal
05/08/2026 01 AM PDT 2.27 388 0 Normal
05/08/2026 02 AM PDT 2.27 388 0 Normal
05/08/2026 03 AM PDT 2.27 388 0 Normal
05/08/2026 04 AM PDT 2.27 388 0 Normal
05/08/2026 05 AM PDT 2.27 388 0 Normal
05/08/2026 06 AM PDT 2.27 388 0 Normal
05/08/2026 07 AM PDT 2.27 388 0 Normal
05/08/2026 08 AM PDT 2.26 383 - Normal
05/08/2026 09 AM PDT 2.26 383 0 Normal
05/08/2026 10 AM PDT 2.26 383 0 Normal
05/08/2026 11 AM PDT 2.26 383 0 Normal
05/08/2026 12 PM PDT 2.26 383 0 Normal
05/08/2026 01 PM PDT 2.26 383 0 Normal
05/08/2026 02 PM PDT 2.26 383 0 Normal
05/08/2026 03 PM PDT 2.26 383 0 Normal
05/08/2026 04 PM PDT 2.26 383 0 Normal
05/08/2026 05 PM PDT 2.26 383 0 Normal
05/08/2026 06 PM PDT 2.26 383 0 Normal
05/08/2026 07 PM PDT 2.26 383 0 Normal
05/08/2026 08 PM PDT 2.26 383 0 Normal
05/08/2026 09 PM PDT 2.26 383 0 Normal
05/08/2026 10 PM PDT 2.26 383 0 Normal
05/08/2026 11 PM PDT 2.26 383 0 Normal
05/09/2026 12 AM PDT 2.26 383 0 Normal
05/09/2026 01 AM PDT 2.26 383 0 Normal
05/09/2026 02 AM PDT 2.27 388 + Normal
05/09/2026 03 AM PDT 2.27 388 0 Normal
05/09/2026 04 AM PDT 2.27 388 0 Normal
05/09/2026 05 AM PDT 2.27 388 0 Normal
05/09/2026 06 AM PDT 2.27 388 0 Normal
05/09/2026 07 AM PDT 2.27 388 0 Normal
05/09/2026 08 AM PDT 2.27 388 0 Normal
05/09/2026 09 AM PDT 2.27 388 0 Normal
05/09/2026 10 AM PDT 2.28 393 + Normal
05/09/2026 11 AM PDT 2.28 393 0 Normal
05/09/2026 12 PM PDT 2.28 393 0 Normal
05/09/2026 01 PM PDT 2.28 393 0 Normal
05/09/2026 02 PM PDT 2.28 393 0 Normal
05/09/2026 03 PM PDT 2.28 393 0 Normal
05/09/2026 04 PM PDT 2.28 393 0 Normal
05/09/2026 05 PM PDT 2.28 393 0 Normal
05/09/2026 06 PM PDT 2.28 393 0 Normal
05/09/2026 07 PM PDT 2.28 393 0 Normal
05/09/2026 08 PM PDT 2.28 393 0 Normal
05/09/2026 09 PM PDT 2.28 393 0 Normal
05/09/2026 10 PM PDT 2.28 393 0 Normal
05/09/2026 11 PM PDT 2.28 393 0 Normal
05/10/2026 12 AM PDT 2.29 398 + Normal
05/10/2026 01 AM PDT 2.29 398 0 Normal
05/10/2026 02 AM PDT 2.29 398 0 Normal
05/10/2026 03 AM PDT 2.29 398 0 Normal
05/10/2026 04 AM PDT 2.29 398 0 Normal
05/10/2026 05 AM PDT 2.29 398 0 Normal
05/10/2026 06 AM PDT 2.30 403 + Normal
05/10/2026 07 AM PDT 2.30 403 0 Normal
05/10/2026 08 AM PDT 2.30 403 0 Normal
05/10/2026 09 AM PDT 2.30 403 0 Normal
05/10/2026 10 AM PDT 2.30 403 0 Normal
05/10/2026 11 AM PDT 2.30 403 0 Normal
05/10/2026 12 PM PDT 2.30 403 0 Normal
05/10/2026 01 PM PDT 2.30 403 0 Normal
05/10/2026 02 PM PDT 2.30 403 0 Normal
05/10/2026 03 PM PDT 2.30 403 0 Normal
05/10/2026 04 PM PDT 2.30 403 0 Normal
05/10/2026 05 PM PDT 2.30 403 0 Normal
05/10/2026 06 PM PDT 2.30 403 0 Normal
05/10/2026 07 PM PDT 2.30 403 0 Normal
05/10/2026 08 PM PDT 2.30 403 0 Normal
05/10/2026 09 PM PDT 2.30 403 0 Normal
05/10/2026 10 PM PDT 2.30 403 0 Normal
05/10/2026 11 PM PDT 2.30 403 0 Normal
05/11/2026 12 AM PDT 2.31 408 + Normal
05/11/2026 01 AM PDT 2.31 408 0 Normal
05/11/2026 02 AM PDT 2.31 408 0 Normal
05/11/2026 03 AM PDT 2.31 408 0 Normal
05/11/2026 04 AM PDT 2.31 408 0 Normal
05/11/2026 05 AM PDT 2.31 408 0 Normal
05/11/2026 06 AM PDT 2.32 414 + Normal
05/11/2026 07 AM PDT 2.32 414 0 Normal
05/11/2026 08 AM PDT 2.32 414 0 Normal
05/11/2026 09 AM PDT 2.32 414 0 Normal
05/11/2026 10 AM PDT 2.32 414 0 Normal
05/11/2026 11 AM PDT 2.31 408 - Normal
05/11/2026 12 PM PDT 2.31 408 0 Normal
05/11/2026 01 PM PDT 2.31 408 0 Normal
05/11/2026 02 PM PDT 2.31 408 0 Normal
05/11/2026 03 PM PDT 2.31 408 0 Normal
05/11/2026 04 PM PDT 2.31 408 0 Normal
05/11/2026 05 PM PDT 2.31 408 0 Normal
05/11/2026 06 PM PDT 2.31 408 0 Normal
05/11/2026 07 PM PDT 2.32 414 + Normal
05/11/2026 08 PM PDT 2.32 414 0 Normal
05/11/2026 09 PM PDT 2.32 414 0 Normal
05/11/2026 10 PM PDT 2.33 419 + Normal
05/11/2026 11 PM PDT 2.33 419 0 Normal
05/12/2026 12 AM PDT 2.34 424 + Normal
05/12/2026 01 AM PDT 2.34 424 0 Normal
05/12/2026 02 AM PDT 2.34 424 0 Normal
05/12/2026 03 AM PDT 2.35 430 + Normal
05/12/2026 04 AM PDT 2.35 430 0 Normal
05/12/2026 05 AM PDT 2.35 430 0 Normal
#
# NOTE 1: Stages are rounded to the nearest hundredth (.01) of a foot.
# NOTE 2: Flows are rounded to the nearest (1) cfs.
# NOTE 3: Trends are determined using hourly change in unrounded stage and flow.
# NOTE 4: Maximum Values are determined using unrounded stage and flow.
|